WHITEHORSE, YK current weather conditions

sailwx.info

Wind from 330 at 6 knots

Air temperature -30.0° C
Visibility: greater than 13.0 NM
Dewpoint -34.0° C

Last reported at 2015-Feb-01 15:00 UTC.
Time now 2015-Feb-01 16:47 UTC

Location: N 60°43' W 135°04'.
View on Google Maps.

See reports from other nearby stations

  
Tides and Currents Weather Stations Pressure Air Temp Water Temp Dewpoint Dewpoint Depression Visibility Wind Speed Wind Dir Waves Ship Positions
date/time (UTC)wind fromknots sea level pressurealtimeterstation pressurevisibilityair tempwater tempwave heightnotes
2015-Feb-01 15:00 330 6 13.0-30.0
2015-Feb-01 14:00 010 5 13.0-30.0
2015-Feb-01 13:00 350 4 13.0-30.0
2015-Feb-01 12:00 300 5 13.0-28.0
2015-Feb-01 11:00 350 4 13.0-29.0
2015-Feb-01 10:00 360 4 13.0-29.0
2015-Feb-01 09:00 340 4 13.0-29.0
2015-Feb-01 08:00 330 4 13.0-29.0
2015-Feb-01 07:00 340 4 13.0-28.0
2015-Feb-01 06:00 310 4 13.0-28.0
2015-Feb-01 05:00 350 4 13.0-27.0
2015-Feb-01 04:00 340 3 13.0-26.0
2015-Feb-01 03:00 280 4 13.0-26.0
2015-Feb-01 02:00 350 4 34.8-24.0
2015-Feb-01 01:00 34.8-24.0
2015-Feb-01 00:00 34.8-22.0
2015-Jan-31 23:00 34.8-22.0
2015-Jan-31 22:00 26.1-23.0
2015-Jan-31 21:00 21.7-25.0 Fog in the vicinity.
2015-Jan-31 20:00 5.2-25.0 Mist.
2015-Jan-31 19:40 5.2-26.0 Mist.
2015-Jan-31 19:17 2.6-26.0 Mist.
2015-Jan-31 19:00 110 2 2.2-26.0 Mist.
2015-Jan-31 18:00 210 3 2.2-27.0 Mist.
2015-Jan-31 17:29 1.3-27.0 Mist.
2015-Jan-31 17:11 0.9-26.0 Mist.
2015-Jan-31 17:00 0.5-26.0 Mist.
2015-Jan-31 16:52 0.9-26.0 Mist.
2015-Jan-31 16:15 2.2-26.0 Mist.
2015-Jan-31 16:00 110 2 3.5-25.0 Fog in the vicinity.
2015-Jan-31 15:00 7.0-25.0
2015-Jan-31 14:00 290 4 7.0-25.0 Fog in the vicinity.
2015-Jan-31 13:00 290 3 7.0-26.0 Fog in the vicinity.
2015-Jan-31 12:08 8.7-27.0 Fog in the vicinity.
2015-Jan-31 12:00 13.0-26.0
2015-Jan-31 11:00 300 3 13.0-25.0
2015-Jan-31 10:00 13.0-24.0
2015-Jan-31 09:00 360 4 13.0-23.0
2015-Jan-31 08:00 300 6 13.0-22.0
2015-Jan-31 07:17 320 7 13.0-21.0
2015-Jan-31 07:00 340 6 13.0-20.0
2015-Jan-31 06:00 340 8 13.0-20.0
2015-Jan-31 05:00 350 4 13.0-19.0
2015-Jan-31 04:00 350 7 13.0-19.0
2015-Jan-31 03:00 340 7 13.0-19.0
2015-Jan-31 02:00 350 6 17.4-19.0
2015-Jan-31 01:47 350 8 17.4-19.0
2015-Jan-31 01:00 350 7 26.1-18.0 Light snow.
2015-Jan-31 00:00 360 6 21.7-18.0 Light snow.
2015-Jan-30 23:18 350 7 21.7-18.0 Light snow.
2015-Jan-30 23:00 360 6 21.7-18.0 Light snow.
2015-Jan-30 22:00 350 8 26.1-18.0 Light snow.
2015-Jan-30 21:00 350 7 26.1-18.0 Light snow.
2015-Jan-30 20:00 330 6 21.7-19.0 Light snow. Low drifting snow.
2015-Jan-30 19:00 320 8 21.7-19.0 Light snow. Low drifting snow.
2015-Jan-30 18:00 330 8 21.7-20.0 Light snow.
2015-Jan-30 17:00 330 5 21.7-20.0 Light snow.
2015-Jan-30 16:00 340 7 13.0-19.0